Voltar ao catálogo

STARLINK-34325

AtivoComunicaçõesVLEO
NORAD 64262·PAYLOAD·🇺🇸 United States

Lançado Jun 4, 2025 de Vandenberg Space Force Base

Loading…

Próximas Passagens (próximas 24 horas)

TLE

AtualizadoSource: CelesTrak SupGP

Época: Sep 15, 2026, 03:34 UTC

1 64262C 25120G   26258.14909722  .00036012  00000+0  10638-2 0  2586
2 64262  53.1596 314.4828 0001296  90.6431 286.3038 15.34377311    18

Acompanhe STARLINK-34325 em tempo real com AllMySat

Download on the App Store